STARLINK-32156, 60278

Orbit data source: Space-Track

STARLINK-32156, 60278 is a payload satellite owned by SpaceX/Seattle (US) in LEO that was launched on Sun, 28 Jul 2024 UTC via an FALCON 9 launch vehicle from the Air Force Eastern Test Range (AFETR). Payload-class satellites include a variety of spacecraft equipped with specific instruments for various scientific and technological missions. These include communications satellites like Starlink; space stations such as the ISS; scientific satellites like the Hubble; Earth observation satellites from companies like Planet Labs, Umbra, and HawkEye 360; GPS; miniature CubeSats for education and research; and military/defense satellites.

Loading next visibility...
Identifier
60278, 2024-132A
Orbit
LEO
Last TLE update
6 hours ago
Origin
Manufacturer
SpaceX/Seattle
Mission
Operational spacecraft
Bus & Motor
STARLINK V2M, Unknown motor
Mass
730 kg wet, ~700 kg dry
Launch date (UTC)
2024-07-28 (11 months ago)
Launch vehicle
FALCON 9
Launch site
Air Force Eastern Test Range (AFETR)
Object type
Payload
Rocket body
Debris
Shape & HBR
Unknown
Radar Cross Section
Large (>1 m²)

Expand to show TLE details & history

TLE from 6 hours ago
0 STARLINK-32156
1 60278U 24132A   25182.17560019  .00000206  00000-0  19074-4 0  9995
2 60278  53.1597 140.6066 0001262  89.2123 270.9022 15.30198018 53055
Epoch: 2025-07-01T04:12Z
TLE epoch observation values (Epoch: 2025-07-01T04:12:51.856Z)
Latitude
-0.00005°
Longitude
157.91568°
Altitude
476.107 km
Speed
7.629 km/s
True Right ascension
09h 22m 25s
True Declination
0° 00' 00"
Sunlit
Object was in daylight at epoch
Visualization orbit readout
Latitude
-34.48494°
Longitude
125.95749°
Altitude
486.745 km
Speed
7.621 km/s
Apparent Right ascension
08h 29m 05s
Apparent Declination
-38° 39' 53"
Sunlit
Object is in daylight
Visualization observer readout
Local Sidereal Time
21:55:47
Azimuth
92.696° ESE
Elevation
-73.221°
Doppler factor
1
Orbital elements
Apogee altitude
476.342 km
Perigee altitude
474.613 km
Semi-major axis
6,853.614 km
Eccentricity
0.00013
Inclination
53.1597°
RAAN
140.6066°
Arg. of periapsis
89.2123°
True anomaly
Unknown
Mean anomaly
270.9022°
Eccentric anomaly
Unknown
Mean motion
3.82528 °/min
Orbital period
94.11 mins
BSTAR
0.000019074
Loading maneuver chart data...
Loading SW <> Apogee altitude chart data...
Loading historical data...
Loading historical data...
Loading historical data...
Loading historical data...
Loading historical data...
Loading historical data...
Loading historical data...

STARLINK-32156 Visibility forecast

Observer location: undefined°, undefined°

Span
Click to sort rows by Start time (UTC) header in descending order
Start Az.
Max El. time (UTC)
Max El. Az.
Max El.
End time (UTC)
End Az.
5 mins2025-07-01 23:11:21.813Z185.263° SSW2025-07-01 23:13:21.813Z141.429° SSE26.369°2025-07-01 23:16:21.813Z73.826° E
5 mins2025-07-02 00:49:21.813Z273.048° WNW2025-07-02 00:51:21.813Z323.071° NNW28.983°2025-07-02 00:54:21.813Z31.395° NE
5 mins2025-07-02 05:46:21.813Z338.869° N2025-07-02 05:48:21.813Z27.943° NE26.925°2025-07-02 05:51:21.813Z91.322° ESE
5 mins2025-07-02 07:24:21.813Z281.065° WNW2025-07-02 07:26:21.813Z226.787° WSW29.722°2025-07-02 07:29:21.813Z162.98° S
|